Time,TemperatureF,DewpointF,PressureIn,WindDirection,WindDirectionDegrees,WindSpeedMPH,WindSpeedGustMPH,Humidity,HourlyPrecipIn,Conditions,Clouds,dailyrainin,SoftwareType,DateUTC
2013-05-18 00:01:00,65.0,65.0,30.04,SE,135,0.0,6.0,100,0.00,,,0.00,Weather View 32 v70,2013-05-18 04:01:00,
2013-05-18 00:06:00,65.0,65.0,30.04,SE,135,0.0,6.0,100,0.00,,,0.00,Weather View 32 v70,2013-05-18 04:06:00,
2013-05-18 00:11:00,65.0,65.0,30.04,SE,135,0.0,6.0,100,0.00,,,0.00,Weather View 32 v70,2013-05-18 04:11:00,
2013-05-18 00:16:00,64.0,64.0,30.04,SE,135,0.0,6.0,100,0.00,,,0.00,Weather View 32 v70,2013-05-18 04:16:00,
2013-05-18 00:21:00,64.0,64.0,30.04,SE,135,2.0,6.0,100,0.00,,,0.00,Weather View 32 v70,2013-05-18 04:21:00,
2013-05-18 00:26:00,65.0,65.0,30.04,SE,135,0.0,6.0,100,0.00,,,0.00,Weather View 32 v70,2013-05-18 04:26:00,
2013-05-18 00:31:00,65.0,65.0,30.04,SE,135,0.0,6.0,100,0.00,,,0.00,Weather View 32 v70,2013-05-18 04:31:00,
2013-05-18 00:36:00,65.0,65.0,30.03,SE,135,0.0,6.0,100,0.00,,,0.00,Weather View 32 v70,2013-05-18 04:36:00,
2013-05-18 00:41:00,65.0,65.0,30.04,SE,135,0.0,6.0,100,0.00,,,0.00,Weather View 32 v70,2013-05-18 04:41:00,
2013-05-18 00:46:00,65.0,65.0,30.03,SE,135,0.0,5.0,100,0.00,,,0.00,Weather View 32 v70,2013-05-18 04:46:00,
2013-05-18 00:51:00,65.0,65.0,30.03,SE,135,0.0,5.0,100,0.00,,,0.00,Weather View 32 v70,2013-05-18 04:51:00,
2013-05-18 00:56:00,65.0,65.0,30.03,SE,135,0.0,5.0,100,0.00,,,0.00,Weather View 32 v70,2013-05-18 04:56:00,
2013-05-18 01:01:00,65.0,65.0,30.03,SE,135,1.0,5.0,100,0.00,,,0.00,Weather View 32 v70,2013-05-18 05:01:00,
2013-05-18 01:06:00,65.0,65.0,30.03,SE,135,2.0,5.0,100,0.00,,,0.00,Weather View 32 v70,2013-05-18 05:06:00,
2013-05-18 01:11:00,65.0,65.0,30.03,East,90,1.0,5.0,100,0.00,,,0.00,Weather View 32 v70,2013-05-18 05:11:00,
2013-05-18 01:16:00,65.0,65.0,30.03,East,90,0.0,5.0,100,0.00,,,0.00,Weather View 32 v70,2013-05-18 05:16:00,
2013-05-18 01:21:00,65.0,65.0,30.03,East,90,0.0,5.0,100,0.00,,,0.00,Weather View 32 v70,2013-05-18 05:21:00,
2013-05-18 01:26:00,65.0,65.0,30.03,East,90,1.0,5.0,100,0.00,,,0.00,Weather View 32 v70,2013-05-18 05:26:00,
2013-05-18 01:31:00,65.0,65.0,30.03,East,90,0.0,5.0,100,0.00,,,0.00,Weather View 32 v70,2013-05-18 05:31:00,
2013-05-18 01:36:00,65.0,65.0,30.03,East,90,0.0,5.0,100,0.00,,,0.00,Weather View 32 v70,2013-05-18 05:36:00,
2013-05-18 01:41:00,65.0,65.0,30.03,East,90,0.0,5.0,100,0.00,,,0.00,Weather View 32 v70,2013-05-18 05:41:00,
2013-05-18 01:46:00,65.0,65.0,30.03,East,90,0.0,5.0,100,0.00,,,0.00,Weather View 32 v70,2013-05-18 05:46:00,
2013-05-18 01:51:00,65.0,65.0,30.02,East,90,0.0,5.0,100,0.00,,,0.00,Weather View 32 v70,2013-05-18 05:51:00,
2013-05-18 01:56:00,65.0,65.0,30.02,East,90,0.0,5.0,100,0.00,,,0.00,Weather View 32 v70,2013-05-18 05:56:00,
2013-05-18 02:01:00,65.0,65.0,30.02,East,90,0.0,5.0,100,0.00,,,0.00,Weather View 32 v70,2013-05-18 06:01:00,
2013-05-18 02:06:00,65.0,65.0,30.02,East,90,1.0,5.0,100,0.00,,,0.00,Weather View 32 v70,2013-05-18 06:06:00,
2013-05-18 02:11:00,65.0,65.0,30.01,East,90,0.0,5.0,100,0.00,,,0.00,Weather View 32 v70,2013-05-18 06:11:00,
2013-05-18 02:16:00,65.0,65.0,30.01,East,90,1.0,4.0,100,0.00,,,0.00,Weather View 32 v70,2013-05-18 06:16:00,
2013-05-18 02:21:00,65.0,65.0,30.01,East,90,1.0,4.0,100,0.00,,,0.00,Weather View 32 v70,2013-05-18 06:21:00,
2013-05-18 02:26:00,66.0,66.0,30.01,ESE,112,2.0,4.0,100,0.00,,,0.00,Weather View 32 v70,2013-05-18 06:26:00,
2013-05-18 02:31:00,66.0,66.0,30.01,ESE,112,4.0,4.0,100,0.00,,,0.00,Weather View 32 v70,2013-05-18 06:31:00,
2013-05-18 02:36:00,66.0,66.0,30.01,SE,135,2.0,5.0,100,0.00,,,0.00,Weather View 32 v70,2013-05-18 06:36:00,
2013-05-18 02:41:00,66.0,66.0,30.01,SE,135,1.0,5.0,100,0.00,,,0.00,Weather View 32 v70,2013-05-18 06:41:00,
2013-05-18 02:46:00,66.0,66.0,30.01,SE,135,0.0,5.0,100,0.00,,,0.00,Weather View 32 v70,2013-05-18 06:46:00,
2013-05-18 02:51:00,66.0,66.0,30.01,SE,135,1.0,5.0,100,0.00,,,0.00,Weather View 32 v70,2013-05-18 06:51:00,
2013-05-18 02:56:00,66.0,66.0,30.01,SE,135,1.0,5.0,100,0.00,,,0.00,Weather View 32 v70,2013-05-18 06:56:00,
2013-05-18 03:01:00,66.0,66.0,30.01,ESE,112,0.0,5.0,100,0.00,,,0.00,Weather View 32 v70,2013-05-18 07:01:00,
2013-05-18 03:06:00,65.0,65.0,30.01,ESE,112,0.0,5.0,100,0.00,,,0.00,Weather View 32 v70,2013-05-18 07:06:00,
2013-05-18 03:11:00,65.0,65.0,30.01,ENE,67,2.0,5.0,100,0.00,,,0.00,Weather View 32 v70,2013-05-18 07:11:00,
2013-05-18 03:16:00,65.0,65.0,30.01,ENE,67,1.0,5.0,100,0.00,,,0.00,Weather View 32 v70,2013-05-18 07:16:00,
2013-05-18 03:21:00,65.0,65.0,30.01,ESE,112,0.0,5.0,100,0.00,,,0.00,Weather View 32 v70,2013-05-18 07:21:00,
2013-05-18 03:26:00,65.0,65.0,30.01,East,90,1.0,5.0,100,0.00,,,0.00,Weather View 32 v70,2013-05-18 07:26:00,
2013-05-18 03:31:00,65.0,65.0,30.01,East,90,1.0,5.0,100,0.00,,,0.00,Weather View 32 v70,2013-05-18 07:31:00,
2013-05-18 03:36:00,65.0,65.0,30.01,ENE,67,4.0,5.0,100,0.00,,,0.00,Weather View 32 v70,2013-05-18 07:36:00,
2013-05-18 03:41:00,65.0,65.0,30.01,ENE,67,1.0,4.0,100,0.00,,,0.00,Weather View 32 v70,2013-05-18 07:41:00,
2013-05-18 03:46:00,65.0,65.0,30.01,ENE,67,0.0,4.0,100,0.00,,,0.00,Weather View 32 v70,2013-05-18 07:46:00,
2013-05-18 03:51:00,65.0,65.0,30.01,ENE,67,0.0,4.0,100,0.00,,,0.00,Weather View 32 v70,2013-05-18 07:51:00,
2013-05-18 03:56:00,64.0,64.0,30.01,ENE,67,0.0,4.0,100,0.00,,,0.00,Weather View 32 v70,2013-05-18 07:56:00,
2013-05-18 04:01:00,64.0,64.0,30.01,ENE,67,1.0,4.0,100,0.00,,,0.00,Weather View 32 v70,2013-05-18 08:01:00,
2013-05-18 04:06:00,64.0,64.0,30.01,ENE,67,0.0,4.0,100,0.00,,,0.00,Weather View 32 v70,2013-05-18 08:06:00,
2013-05-18 04:11:00,64.0,64.0,30.01,ENE,67,0.0,4.0,100,0.00,,,0.00,Weather View 32 v70,2013-05-18 08:11:00,
2013-05-18 04:16:00,64.0,64.0,30.01,ENE,67,0.0,4.0,100,0.00,,,0.00,Weather View 32 v70,2013-05-18 08:16:00,
2013-05-18 04:21:00,64.0,64.0,30.01,ENE,67,0.0,4.0,100,0.00,,,0.00,Weather View 32 v70,2013-05-18 08:21:00,
2013-05-18 04:26:00,64.0,64.0,30.01,ENE,67,1.0,4.0,100,0.00,,,0.00,Weather View 32 v70,2013-05-18 08:26:00,
2013-05-18 04:31:00,64.0,64.0,30.01,ENE,67,0.0,4.0,100,0.00,,,0.00,Weather View 32 v70,2013-05-18 08:31:00,
2013-05-18 04:36:00,64.0,64.0,30.01,ENE,67,0.0,4.0,100,0.00,,,0.00,Weather View 32 v70,2013-05-18 08:36:00,
2013-05-18 04:41:00,64.0,64.0,30.01,ENE,67,0.0,2.0,100,0.00,,,0.00,Weather View 32 v70,2013-05-18 08:41:00,
2013-05-18 04:46:00,64.0,64.0,30.01,ENE,67,0.0,2.0,100,0.00,,,0.00,Weather View 32 v70,2013-05-18 08:46:00,
2013-05-18 04:51:00,64.0,64.0,30.01,ENE,67,0.0,2.0,100,0.00,,,0.00,Weather View 32 v70,2013-05-18 08:51:00,
2013-05-18 04:56:00,64.0,64.0,30.01,ENE,67,0.0,2.0,100,0.00,,,0.00,Weather View 32 v70,2013-05-18 08:56:00,
2013-05-18 05:01:00,65.0,65.0,30.01,ENE,67,0.0,2.0,100,0.00,,,0.00,Weather View 32 v70,2013-05-18 09:01:00,
2013-05-18 05:06:00,65.0,65.0,30.01,ENE,67,0.0,3.0,100,0.00,,,0.00,Weather View 32 v70,2013-05-18 09:06:00,
2013-05-18 05:11:00,65.0,65.0,30.01,ENE,67,0.0,3.0,100,0.00,,,0.00,Weather View 32 v70,2013-05-18 09:11:00,
2013-05-18 05:16:00,65.0,65.0,30.01,ENE,67,0.0,3.0,100,0.00,,,0.00,Weather View 32 v70,2013-05-18 09:16:00,
2013-05-18 05:21:00,65.0,65.0,30.01,ENE,67,0.0,3.0,100,0.00,,,0.00,Weather View 32 v70,2013-05-18 09:21:00,
2013-05-18 05:26:00,65.0,65.0,30.01,ENE,67,0.0,3.0,100,0.00,,,0.00,Weather View 32 v70,2013-05-18 09:26:00,
2013-05-18 05:31:00,65.0,65.0,30.01,ENE,67,0.0,3.0,100,0.00,,,0.00,Weather View 32 v70,2013-05-18 09:31:00,
2013-05-18 05:36:00,65.0,65.0,30.01,ENE,67,0.0,3.0,100,0.00,,,0.00,Weather View 32 v70,2013-05-18 09:36:00,
2013-05-18 05:41:00,65.0,65.0,30.01,ENE,67,0.0,3.0,100,0.00,,,0.00,Weather View 32 v70,2013-05-18 09:41:00,
2013-05-18 05:46:00,65.0,65.0,30.01,ENE,67,0.0,3.0,100,0.00,,,0.00,Weather View 32 v70,2013-05-18 09:46:00,
2013-05-18 05:51:00,65.0,65.0,30.01,ENE,67,0.0,3.0,100,0.00,,,0.00,Weather View 32 v70,2013-05-18 09:51:00,
2013-05-18 05:56:00,65.0,65.0,30.01,ENE,67,0.0,3.0,100,0.00,,,0.00,Weather View 32 v70,2013-05-18 09:56:00,
2013-05-18 06:01:00,65.0,65.0,30.01,ENE,67,0.0,3.0,100,0.00,,,0.00,Weather View 32 v70,2013-05-18 10:01:00,
2013-05-18 06:06:00,65.0,65.0,30.01,ENE,67,0.0,3.0,100,0.00,,,0.00,Weather View 32 v70,2013-05-18 10:06:00,
2013-05-18 06:11:00,65.0,65.0,30.01,ENE,67,0.0,2.0,100,0.00,,,0.00,Weather View 32 v70,2013-05-18 10:11:00,
2013-05-18 06:16:00,65.0,65.0,30.01,ENE,67,0.0,2.0,100,0.00,,,0.00,Weather View 32 v70,2013-05-18 10:16:00,
2013-05-18 06:21:00,65.0,65.0,30.01,ENE,67,0.0,2.0,100,0.00,,,0.00,Weather View 32 v70,2013-05-18 10:21:00,
2013-05-18 06:26:00,65.0,65.0,30.01,ENE,67,0.0,2.0,100,0.00,,,0.00,Weather View 32 v70,2013-05-18 10:26:00,
2013-05-18 06:31:00,65.0,65.0,30.02,ENE,67,0.0,0.0,100,0.00,,,0.00,Weather View 32 v70,2013-05-18 10:31:00,
2013-05-18 06:36:00,65.0,65.0,30.02,ESE,112,0.0,3.0,100,0.00,,,0.00,Weather View 32 v70,2013-05-18 10:36:00,
2013-05-18 06:41:00,65.0,65.0,30.02,ENE,67,3.0,4.0,100,0.00,,,0.00,Weather View 32 v70,2013-05-18 10:41:00,
2013-05-18 06:46:00,65.0,65.0,30.02,ENE,67,0.0,4.0,100,0.00,,,0.00,Weather View 32 v70,2013-05-18 10:46:00,
2013-05-18 06:51:00,65.0,65.0,30.03,ENE,67,0.0,4.0,100,0.00,,,0.00,Weather View 32 v70,2013-05-18 10:51:00,
2013-05-18 06:56:00,65.0,65.0,30.03,ENE,67,0.0,4.0,100,0.00,,,0.00,Weather View 32 v70,2013-05-18 10:56:00,
2013-05-18 07:01:00,65.0,65.0,30.03,NE,45,0.0,4.0,100,0.00,,,0.00,Weather View 32 v70,2013-05-18 11:01:00,
2013-05-18 07:06:00,65.0,65.0,30.02,North,360,1.0,4.0,100,0.00,,,0.00,Weather View 32 v70,2013-05-18 11:06:00,
2013-05-18 07:11:00,65.0,65.0,30.03,NNW,337,2.0,4.0,100,0.00,,,0.00,Weather View 32 v70,2013-05-18 11:11:00,
2013-05-18 07:16:00,65.0,65.0,30.03,NNW,337,1.0,4.0,100,0.00,,,0.00,Weather View 32 v70,2013-05-18 11:16:00,
2013-05-18 07:21:00,64.0,64.0,30.03,NNW,337,2.0,4.0,100,0.00,,,0.00,Weather View 32 v70,2013-05-18 11:21:00,
2013-05-18 07:26:00,64.0,64.0,30.03,NNW,337,1.0,4.0,100,0.00,,,0.00,Weather View 32 v70,2013-05-18 11:26:00,
2013-05-18 07:31:00,64.0,64.0,30.03,NNW,337,3.0,4.0,100,0.00,,,0.00,Weather View 32 v70,2013-05-18 11:31:00,
2013-05-18 07:36:00,64.0,64.0,30.03,NNW,337,1.0,5.0,100,0.00,,,0.00,Weather View 32 v70,2013-05-18 11:36:00,
2013-05-18 07:41:00,64.0,64.0,30.03,NNW,337,0.0,5.0,100,0.00,,,0.00,Weather View 32 v70,2013-05-18 11:41:00,
2013-05-18 07:52:00,64.0,64.0,30.03,North,360,3.0,5.0,100,0.00,,,0.00,Weather View 32 v70,2013-05-18 11:52:00,
2013-05-18 07:57:00,64.0,64.0,30.03,North,360,0.0,5.0,100,0.00,,,0.00,Weather View 32 v70,2013-05-18 11:57:00,
2013-05-18 08:02:00,64.0,64.0,30.03,North,360,0.0,5.0,100,0.00,,,0.00,Weather View 32 v70,2013-05-18 12:02:00,
2013-05-18 08:07:00,64.0,64.0,30.03,North,360,0.0,5.0,100,0.00,,,0.00,Weather View 32 v70,2013-05-18 12:07:00,
2013-05-18 08:12:00,64.0,64.0,30.03,North,360,0.0,5.0,100,0.00,,,0.00,Weather View 32 v70,2013-05-18 12:12:00,
2013-05-18 08:17:00,65.0,65.0,30.03,North,360,0.0,5.0,100,0.00,,,0.00,Weather View 32 v70,2013-05-18 12:17:00,
2013-05-18 08:22:00,65.0,65.0,30.03,North,360,2.0,5.0,100,0.00,,,0.00,Weather View 32 v70,2013-05-18 12:22:00,
2013-05-18 08:27:00,65.0,65.0,30.03,North,360,1.0,5.0,100,0.00,,,0.00,Weather View 32 v70,2013-05-18 12:27:00,
2013-05-18 08:32:00,66.0,66.0,30.03,North,360,1.0,4.0,100,0.00,,,0.00,Weather View 32 v70,2013-05-18 12:32:00,
2013-05-18 08:37:00,66.0,66.0,30.03,NE,45,1.0,5.0,100,0.00,,,0.00,Weather View 32 v70,2013-05-18 12:37:00,
2013-05-18 08:42:00,66.0,66.0,30.04,NE,45,4.0,5.0,100,0.00,,,0.00,Weather View 32 v70,2013-05-18 12:42:00,
2013-05-18 08:47:00,67.0,67.0,30.04,NE,45,4.0,5.0,100,0.00,,,0.00,Weather View 32 v70,2013-05-18 12:47:00,
2013-05-18 08:52:00,67.0,67.0,30.04,NE,45,1.0,6.0,100,0.00,,,0.00,Weather View 32 v70,2013-05-18 12:52:00,
2013-05-18 08:57:00,67.0,67.0,30.04,NNE,22,3.0,6.0,100,0.00,,,0.00,Weather View 32 v70,2013-05-18 12:57:00,
2013-05-18 09:02:00,67.0,67.0,30.04,North,360,4.0,7.0,100,0.00,,,0.00,Weather View 32 v70,2013-05-18 13:02:00,
2013-05-18 09:07:00,68.0,68.0,30.04,NNE,22,2.0,7.0,100,0.00,,,0.00,Weather View 32 v70,2013-05-18 13:07:00,
2013-05-18 09:12:00,68.0,68.0,30.04,NNE,22,4.0,7.0,100,0.00,,,0.00,Weather View 32 v70,2013-05-18 13:12:00,
2013-05-18 09:17:00,69.0,69.0,30.04,NE,45,6.0,7.0,100,0.00,,,0.00,Weather View 32 v70,2013-05-18 13:17:00,
2013-05-18 09:22:00,70.0,70.0,30.04,East,90,1.0,7.0,100,0.00,,,0.00,Weather View 32 v70,2013-05-18 13:22:00,
2013-05-18 09:27:00,70.0,70.0,30.04,NE,45,2.0,7.0,100,0.00,,,0.00,Weather View 32 v70,2013-05-18 13:27:00,
2013-05-18 09:32:00,71.0,70.7,30.05,NE,45,4.0,7.0,99,0.00,,,0.00,Weather View 32 v70,2013-05-18 13:32:00,
2013-05-18 09:37:00,71.0,69.8,30.05,East,90,3.0,8.0,96,0.00,,,0.00,Weather View 32 v70,2013-05-18 13:37:00,
2013-05-18 09:42:00,71.0,70.1,30.05,NNE,22,1.0,8.0,97,0.00,,,0.00,Weather View 32 v70,2013-05-18 13:42:00,
2013-05-18 09:47:00,72.0,70.5,30.05,East,90,2.0,9.0,95,0.00,,,0.00,Weather View 32 v70,2013-05-18 13:47:00,
2013-05-18 09:52:00,72.0,69.2,30.05,NNE,22,6.0,9.0,91,0.00,,,0.00,Weather View 32 v70,2013-05-18 13:52:00,
2013-05-18 09:57:00,72.0,69.5,30.05,NNE,22,0.0,9.0,92,0.00,,,0.00,Weather View 32 v70,2013-05-18 13:57:00,
2013-05-18 10:02:00,72.0,70.2,30.05,ENE,67,1.0,9.0,94,0.00,,,0.00,Weather View 32 v70,2013-05-18 14:02:00,
2013-05-18 10:07:00,72.0,70.2,30.05,ENE,67,3.0,9.0,94,0.00,,,0.00,Weather View 32 v70,2013-05-18 14:07:00,
2013-05-18 10:12:00,72.0,69.5,30.05,ENE,67,4.0,9.0,92,0.00,,,0.00,Weather View 32 v70,2013-05-18 14:12:00,
2013-05-18 10:17:00,72.0,69.5,30.05,ENE,67,1.0,9.0,92,0.00,,,0.00,Weather View 32 v70,2013-05-18 14:17:00,
2013-05-18 10:22:00,71.0,68.5,30.06,East,90,3.0,9.0,92,0.00,,,0.00,Weather View 32 v70,2013-05-18 14:22:00,
2013-05-18 10:27:00,71.0,69.2,30.05,NE,45,0.0,9.0,94,0.00,,,0.00,Weather View 32 v70,2013-05-18 14:27:00,
2013-05-18 10:32:00,71.0,69.2,30.05,East,90,5.0,9.0,94,0.00,,,0.00,Weather View 32 v70,2013-05-18 14:32:00,
2013-05-18 10:37:00,71.0,69.2,30.05,SE,135,1.0,9.0,94,0.00,,,0.00,Weather View 32 v70,2013-05-18 14:37:00,
2013-05-18 10:42:00,71.0,69.2,30.05,NNE,22,2.0,9.0,94,0.00,,,0.00,Weather View 32 v70,2013-05-18 14:42:00,
2013-05-18 10:47:00,72.0,70.2,30.05,East,90,1.0,9.0,94,0.00,,,0.00,Weather View 32 v70,2013-05-18 14:47:00,
2013-05-18 10:52:00,72.0,70.5,30.05,NE,45,2.0,9.0,95,0.00,,,0.00,Weather View 32 v70,2013-05-18 14:52:00,
2013-05-18 10:57:00,72.0,69.9,30.05,East,90,2.0,9.0,93,0.00,,,0.00,Weather View 32 v70,2013-05-18 14:57:00,
2013-05-18 11:02:00,72.0,69.9,30.05,ENE,67,2.0,9.0,93,0.00,,,0.00,Weather View 32 v70,2013-05-18 15:02:00,
2013-05-18 11:07:00,72.0,69.5,30.05,NE,45,2.0,9.0,92,0.00,,,0.00,Weather View 32 v70,2013-05-18 15:07:00,
2013-05-18 11:12:00,72.0,69.5,30.05,North,360,3.0,9.0,92,0.00,,,0.00,Weather View 32 v70,2013-05-18 15:12:00,
2013-05-18 11:17:00,72.0,69.5,30.06,NE,45,6.0,9.0,92,0.00,,,0.00,Weather View 32 v70,2013-05-18 15:17:00,
2013-05-18 11:22:00,73.0,70.2,30.06,North,360,3.0,9.0,91,0.00,,,0.00,Weather View 32 v70,2013-05-18 15:22:00,
2013-05-18 11:27:00,73.0,69.6,30.05,ESE,112,2.0,9.0,89,0.00,,,0.00,Weather View 32 v70,2013-05-18 15:27:00,
2013-05-18 11:32:00,73.0,69.6,30.05,NE,45,3.0,9.0,89,0.00,,,0.00,Weather View 32 v70,2013-05-18 15:32:00,
2013-05-18 11:37:00,74.0,69.5,30.06,ENE,67,5.0,9.0,86,0.00,,,0.00,Weather View 32 v70,2013-05-18 15:37:00,
2013-05-18 11:42:00,74.0,69.2,30.06,East,90,6.0,9.0,85,0.00,,,0.00,Weather View 32 v70,2013-05-18 15:42:00,
2013-05-18 11:47:00,74.0,69.2,30.06,NE,45,2.0,9.0,85,0.00,,,0.00,Weather View 32 v70,2013-05-18 15:47:00,
2013-05-18 11:52:00,74.0,69.5,30.06,North,360,0.0,9.0,86,0.00,,,0.00,Weather View 32 v70,2013-05-18 15:52:00,
2013-05-18 11:57:00,74.0,68.8,30.05,East,90,1.0,9.0,84,0.00,,,0.00,Weather View 32 v70,2013-05-18 15:57:00,
2013-05-18 12:02:00,74.0,69.2,30.05,East,90,0.0,9.0,85,0.00,,,0.00,Weather View 32 v70,2013-05-18 16:02:00,
2013-05-18 12:07:00,73.0,68.5,30.05,SE,135,1.0,9.0,86,0.00,,,0.00,Weather View 32 v70,2013-05-18 16:07:00,
2013-05-18 12:12:00,73.0,68.9,30.05,East,90,6.0,9.0,87,0.00,,,0.00,Weather View 32 v70,2013-05-18 16:12:00,
2013-05-18 12:17:00,72.0,68.2,30.05,SE,135,1.0,9.0,88,0.00,,,0.00,Weather View 32 v70,2013-05-18 16:17:00,
2013-05-18 12:22:00,72.0,68.9,30.05,NE,45,4.0,9.0,90,0.00,,,0.00,Weather View 32 v70,2013-05-18 16:22:00,
2013-05-18 12:27:00,73.0,69.9,30.06,East,90,0.0,9.0,90,0.00,,,0.00,Weather View 32 v70,2013-05-18 16:27:00,
2013-05-18 12:32:00,73.0,70.2,30.05,ENE,67,4.0,9.0,91,0.00,,,0.00,Weather View 32 v70,2013-05-18 16:32:00,
2013-05-18 12:37:00,73.0,69.6,30.05,SE,135,4.0,7.0,89,0.00,,,0.00,Weather View 32 v70,2013-05-18 16:37:00,
2013-05-18 12:42:00,73.0,69.2,30.05,SE,135,1.0,8.0,88,0.00,,,0.00,Weather View 32 v70,2013-05-18 16:42:00,
2013-05-18 12:47:00,73.0,69.2,30.05,ESE,112,3.0,10.0,88,0.00,,,0.00,Weather View 32 v70,2013-05-18 16:47:00,
2013-05-18 12:52:00,74.0,70.5,30.05,NE,45,2.0,10.0,89,0.00,,,0.00,Weather View 32 v70,2013-05-18 16:52:00,
2013-05-18 12:57:00,74.0,68.8,30.05,NE,45,3.0,10.0,84,0.00,,,0.00,Weather View 32 v70,2013-05-18 16:57:00,
2013-05-18 13:02:00,75.0,69.8,30.05,SSW,202,4.0,10.0,84,0.00,,,0.00,Weather View 32 v70,2013-05-18 17:02:00,
2013-05-18 13:07:00,76.0,69.4,30.05,South,180,2.0,10.0,80,0.00,,,0.00,Weather View 32 v70,2013-05-18 17:07:00,
2013-05-18 13:12:00,75.0,68.4,30.05,NNE,22,1.0,10.0,80,0.00,,,0.00,Weather View 32 v70,2013-05-18 17:12:00,
2013-05-18 13:17:00,75.0,69.1,30.05,ENE,67,0.0,10.0,82,0.00,,,0.00,Weather View 32 v70,2013-05-18 17:17:00,
2013-05-18 13:22:00,75.0,69.8,30.05,NE,45,7.0,10.0,84,0.00,,,0.00,Weather View 32 v70,2013-05-18 17:22:00,
2013-05-18 13:27:00,75.0,69.8,30.05,NE,45,3.0,10.0,84,0.00,,,0.00,Weather View 32 v70,2013-05-18 17:27:00,
2013-05-18 13:32:00,75.0,68.4,30.05,NE,45,6.0,10.0,80,0.00,,,0.00,Weather View 32 v70,2013-05-18 17:32:00,
2013-05-18 13:37:00,75.0,69.1,30.04,NE,45,2.0,10.0,82,0.00,,,0.00,Weather View 32 v70,2013-05-18 17:37:00,
2013-05-18 13:42:00,75.0,68.4,30.04,SE,135,2.0,10.0,80,0.00,,,0.00,Weather View 32 v70,2013-05-18 17:42:00,
2013-05-18 13:47:00,75.0,69.1,30.04,East,90,0.0,9.0,82,0.00,,,0.00,Weather View 32 v70,2013-05-18 17:47:00,
2013-05-18 13:52:00,76.0,69.7,30.04,NE,45,0.0,9.0,81,0.00,,,0.00,Weather View 32 v70,2013-05-18 17:52:00,
2013-05-18 13:57:00,76.0,69.0,30.04,East,90,6.0,9.0,79,0.00,,,0.00,Weather View 32 v70,2013-05-18 17:57:00,
2013-05-18 14:02:00,76.0,69.4,30.04,NE,45,3.0,9.0,80,0.00,,,0.00,Weather View 32 v70,2013-05-18 18:02:00,
2013-05-18 14:07:00,77.0,70.3,30.04,SE,135,3.0,9.0,80,0.00,,,0.00,Weather View 32 v70,2013-05-18 18:07:00,
2013-05-18 14:12:00,77.0,69.6,30.04,NNE,22,5.0,9.0,78,0.00,,,0.00,Weather View 32 v70,2013-05-18 18:12:00,
2013-05-18 14:17:00,78.0,69.0,30.04,NE,45,3.0,9.0,74,0.00,,,0.00,Weather View 32 v70,2013-05-18 18:17:00,
2013-05-18 14:22:00,78.0,69.4,30.04,East,90,1.0,9.0,75,0.00,,,0.00,Weather View 32 v70,2013-05-18 18:22:00,
2013-05-18 14:27:00,78.0,69.4,30.04,North,360,6.0,9.0,75,0.00,,,0.00,Weather View 32 v70,2013-05-18 18:27:00,
2013-05-18 14:32:00,78.0,67.8,30.04,NE,45,2.0,10.0,71,0.00,,,0.00,Weather View 32 v70,2013-05-18 18:32:00,
2013-05-18 14:37:00,78.0,68.2,30.04,NNE,22,4.0,10.0,72,0.00,,,0.00,Weather View 32 v70,2013-05-18 18:37:00,
2013-05-18 14:42:00,77.0,68.0,30.04,East,90,2.0,10.0,74,0.00,,,0.00,Weather View 32 v70,2013-05-18 18:42:00,
2013-05-18 14:47:00,77.0,68.0,30.03,ENE,67,0.0,10.0,74,0.00,,,0.00,Weather View 32 v70,2013-05-18 18:47:00,
2013-05-18 14:52:00,76.0,68.6,30.03,NE,45,5.0,10.0,78,0.00,,,0.00,Weather View 32 v70,2013-05-18 18:52:00,
2013-05-18 14:57:00,76.0,69.0,30.03,East,90,0.0,10.0,79,0.00,,,0.00,Weather View 32 v70,2013-05-18 18:57:00,
2013-05-18 15:02:00,76.0,69.4,30.03,NE,45,3.0,10.0,80,0.00,,,0.00,Weather View 32 v70,2013-05-18 19:02:00,
2013-05-18 15:07:00,76.0,69.4,30.03,ENE,67,2.0,10.0,80,0.00,,,0.00,Weather View 32 v70,2013-05-18 19:07:00,
2013-05-18 15:12:00,76.0,69.7,30.03,East,90,2.0,10.0,81,0.00,,,0.00,Weather View 32 v70,2013-05-18 19:12:00,
2013-05-18 15:17:00,76.0,69.7,30.03,NNE,22,3.0,10.0,81,0.00,,,0.00,Weather View 32 v70,2013-05-18 19:17:00,
2013-05-18 15:22:00,76.0,69.7,30.03,NNE,22,6.0,12.0,81,0.00,,,0.00,Weather View 32 v70,2013-05-18 19:22:00,
2013-05-18 15:27:00,76.0,69.7,30.02,North,360,4.0,12.0,81,0.00,,,0.00,Weather View 32 v70,2013-05-18 19:27:00,
2013-05-18 15:32:00,77.0,69.6,30.03,East,90,6.0,12.0,78,0.00,,,0.00,Weather View 32 v70,2013-05-18 19:32:00,
2013-05-18 15:37:00,77.0,70.7,30.02,East,90,6.0,12.0,81,0.00,,,0.00,Weather View 32 v70,2013-05-18 19:37:00,
2013-05-18 15:42:00,77.0,70.0,30.02,NE,45,1.0,12.0,79,0.00,,,0.00,Weather View 32 v70,2013-05-18 19:42:00,
2013-05-18 15:47:00,78.0,70.6,30.03,NE,45,6.0,12.0,78,0.00,,,0.00,Weather View 32 v70,2013-05-18 19:47:00,
2013-05-18 15:52:00,78.0,71.3,30.03,NE,45,4.0,12.0,80,0.00,,,0.00,Weather View 32 v70,2013-05-18 19:52:00,
2013-05-18 15:57:00,78.0,69.4,30.03,SE,135,3.0,12.0,75,0.00,,,0.00,Weather View 32 v70,2013-05-18 19:57:00,
2013-05-18 16:02:00,78.0,69.8,30.03,East,90,5.0,12.0,76,0.00,,,0.00,Weather View 32 v70,2013-05-18 20:02:00,
2013-05-18 16:07:00,78.0,68.2,30.03,NE,45,8.0,12.0,72,0.00,,,0.00,Weather View 32 v70,2013-05-18 20:07:00,
2013-05-18 16:12:00,78.0,69.0,30.03,East,90,3.0,12.0,74,0.00,,,0.00,Weather View 32 v70,2013-05-18 20:12:00,
2013-05-18 16:17:00,77.0,68.0,30.02,SE,135,4.0,12.0,74,0.00,,,0.00,Weather View 32 v70,2013-05-18 20:17:00,
2013-05-18 16:22:00,77.0,70.0,30.02,ENE,67,3.0,12.0,79,0.00,,,0.00,Weather View 32 v70,2013-05-18 20:22:00,
2013-05-18 16:27:00,76.0,69.4,30.02,NNE,22,2.0,12.0,80,0.00,,,0.00,Weather View 32 v70,2013-05-18 20:27:00,
2013-05-18 16:32:00,77.0,70.7,30.01,NE,45,1.0,11.0,81,0.00,,,0.00,Weather View 32 v70,2013-05-18 20:32:00,
2013-05-18 16:37:00,77.0,70.7,30.01,NE,45,6.0,11.0,81,0.00,,,0.00,Weather View 32 v70,2013-05-18 20:37:00,
2013-05-18 16:42:00,77.0,70.0,30.01,NE,45,3.0,11.0,79,0.00,,,0.00,Weather View 32 v70,2013-05-18 20:42:00,
2013-05-18 16:47:00,77.0,70.3,30.01,ENE,67,1.0,9.0,80,0.00,,,0.00,Weather View 32 v70,2013-05-18 20:47:00,
2013-05-18 16:52:00,77.0,70.3,30.01,East,90,1.0,9.0,80,0.00,,,0.00,Weather View 32 v70,2013-05-18 20:52:00,
2013-05-18 16:57:00,78.0,70.9,30.01,NNE,22,3.0,9.0,79,0.00,,,0.00,Weather View 32 v70,2013-05-18 20:57:00,
2013-05-18 17:02:00,78.0,70.2,30.01,East,90,6.0,9.0,77,0.00,,,0.00,Weather View 32 v70,2013-05-18 21:02:00,
2013-05-18 17:07:00,78.0,69.4,30.01,North,360,4.0,9.0,75,0.00,,,0.00,Weather View 32 v70,2013-05-18 21:07:00,
2013-05-18 17:12:00,79.0,70.0,30.01,North,360,2.0,9.0,74,0.00,,,0.00,Weather View 32 v70,2013-05-18 21:12:00,
2013-05-18 17:17:00,79.0,70.0,30.01,ESE,112,2.0,9.0,74,0.00,,,0.00,Weather View 32 v70,2013-05-18 21:17:00,
2013-05-18 17:22:00,79.0,69.2,30.01,NE,45,6.0,9.0,72,0.00,,,0.00,Weather View 32 v70,2013-05-18 21:22:00,
2013-05-18 17:27:00,79.0,67.5,30.01,SSE,157,2.0,8.0,68,0.00,,,0.00,Weather View 32 v70,2013-05-18 21:27:00,
2013-05-18 17:32:00,79.0,67.5,30.01,ENE,67,3.0,8.0,68,0.00,,,0.00,Weather View 32 v70,2013-05-18 21:32:00,
2013-05-18 17:37:00,78.0,67.0,30.01,NE,45,3.0,8.0,69,0.00,,,0.00,Weather View 32 v70,2013-05-18 21:37:00,
2013-05-18 17:42:00,78.0,65.7,30.00,NE,45,1.0,8.0,66,0.00,,,0.00,Weather View 32 v70,2013-05-18 21:42:00,
2013-05-18 17:47:00,78.0,67.8,30.01,NW,315,0.0,8.0,71,0.00,,,0.00,Weather View 32 v70,2013-05-18 21:47:00,
2013-05-18 17:52:00,78.0,68.6,30.00,ESE,112,3.0,10.0,73,0.00,,,0.00,Weather View 32 v70,2013-05-18 21:52:00,
2013-05-18 17:57:00,78.0,69.0,30.00,NE,45,2.0,10.0,74,0.00,,,0.00,Weather View 32 v70,2013-05-18 21:57:00,
2013-05-18 18:02:00,78.0,70.6,30.00,NE,45,1.0,10.0,78,0.00,,,0.00,Weather View 32 v70,2013-05-18 22:02:00,
2013-05-18 18:07:00,78.0,69.8,30.00,North,360,1.0,10.0,76,0.00,,,0.00,Weather View 32 v70,2013-05-18 22:07:00,
2013-05-18 18:12:00,78.0,70.2,30.00,East,90,1.0,10.0,77,0.00,,,0.00,Weather View 32 v70,2013-05-18 22:12:00,
2013-05-18 18:17:00,78.0,70.6,30.00,East,90,1.0,10.0,78,0.00,,,0.00,Weather View 32 v70,2013-05-18 22:17:00,
2013-05-18 18:22:00,77.0,70.0,30.00,North,360,2.0,10.0,79,0.00,,,0.00,Weather View 32 v70,2013-05-18 22:22:00,
2013-05-18 18:27:00,77.0,70.7,30.00,ENE,67,3.0,10.0,81,0.00,,,0.00,Weather View 32 v70,2013-05-18 22:27:00,
2013-05-18 18:32:00,77.0,71.1,30.00,ENE,67,1.0,10.0,82,0.00,,,0.00,Weather View 32 v70,2013-05-18 22:32:00,
2013-05-18 18:37:00,76.0,70.4,30.00,East,90,0.0,10.0,83,0.00,,,0.00,Weather View 32 v70,2013-05-18 22:37:00,
2013-05-18 18:42:00,76.0,70.4,29.99,ENE,67,1.0,10.0,83,0.00,,,0.00,Weather View 32 v70,2013-05-18 22:42:00,
2013-05-18 18:47:00,76.0,70.1,30.00,NNE,22,0.0,10.0,82,0.00,,,0.00,Weather View 32 v70,2013-05-18 22:47:00,
2013-05-18 18:52:00,76.0,70.1,29.99,NE,45,1.0,8.0,82,0.00,,,0.00,Weather View 32 v70,2013-05-18 22:52:00,
2013-05-18 18:57:00,76.0,70.1,29.99,NE,45,2.0,8.0,82,0.00,,,0.00,Weather View 32 v70,2013-05-18 22:57:00,
2013-05-18 19:02:00,76.0,70.1,29.99,East,90,2.0,8.0,82,0.00,,,0.00,Weather View 32 v70,2013-05-18 23:02:00,
2013-05-18 19:07:00,76.0,69.7,29.99,NE,45,0.0,8.0,81,0.00,,,0.00,Weather View 32 v70,2013-05-18 23:07:00,
2013-05-18 19:12:00,76.0,70.1,29.99,ENE,67,2.0,7.0,82,0.00,,,0.00,Weather View 32 v70,2013-05-18 23:12:00,
2013-05-18 19:17:00,75.0,68.4,29.99,SE,135,2.0,6.0,80,0.00,,,0.00,Weather View 32 v70,2013-05-18 23:17:00,
2013-05-18 19:22:00,75.0,68.7,29.99,SE,135,2.0,6.0,81,0.00,,,0.00,Weather View 32 v70,2013-05-18 23:22:00,
2013-05-18 19:27:00,75.0,68.7,29.99,SE,135,1.0,5.0,81,0.00,,,0.00,Weather View 32 v70,2013-05-18 23:27:00,
2013-05-18 19:32:00,75.0,69.1,29.99,SE,135,1.0,5.0,82,0.00,,,0.00,Weather View 32 v70,2013-05-18 23:32:00,
2013-05-18 19:37:00,75.0,69.5,29.99,ESE,112,1.0,5.0,83,0.00,,,0.00,Weather View 32 v70,2013-05-18 23:37:00,
2013-05-18 19:42:00,75.0,69.5,29.99,ESE,112,0.0,5.0,83,0.00,,,0.00,Weather View 32 v70,2013-05-18 23:42:00,
2013-05-18 19:47:00,75.0,69.5,29.99,ESE,112,1.0,5.0,83,0.00,,,0.00,Weather View 32 v70,2013-05-18 23:47:00,
2013-05-18 19:52:00,74.0,68.8,29.99,ESE,112,0.0,5.0,84,0.00,,,0.00,Weather View 32 v70,2013-05-18 23:52:00,
2013-05-18 19:57:00,74.0,68.8,29.99,ESE,112,0.0,5.0,84,0.00,,,0.00,Weather View 32 v70,2013-05-18 23:57:00,
2013-05-18 20:02:00,74.0,69.2,29.99,ESE,112,0.0,5.0,85,0.00,,,0.00,Weather View 32 v70,2013-05-19 00:02:00,
2013-05-18 20:07:00,74.0,70.2,29.99,ESE,112,0.0,5.0,88,0.00,,,0.00,Weather View 32 v70,2013-05-19 00:07:00,
2013-05-18 20:12:00,74.0,70.9,29.99,ESE,112,0.0,5.0,90,0.00,,,0.00,Weather View 32 v70,2013-05-19 00:12:00,
2013-05-18 20:17:00,73.0,70.2,29.99,ESE,112,0.0,4.0,91,0.00,,,0.00,Weather View 32 v70,2013-05-19 00:17:00,
2013-05-18 20:22:00,73.0,70.5,29.99,ESE,112,0.0,4.0,92,0.00,,,0.00,Weather View 32 v70,2013-05-19 00:22:00,
2013-05-18 20:27:00,73.0,70.5,29.99,ESE,112,0.0,3.0,92,0.00,,,0.00,Weather View 32 v70,2013-05-19 00:27:00,
2013-05-18 20:32:00,72.0,69.5,29.99,ESE,112,0.0,3.0,92,0.00,,,0.00,Weather View 32 v70,2013-05-19 00:32:00,
2013-05-18 20:37:00,72.0,69.9,29.99,ESE,112,0.0,2.0,93,0.00,,,0.00,Weather View 32 v70,2013-05-19 00:37:00,
2013-05-18 20:42:00,72.0,70.2,29.99,ESE,112,0.0,2.0,94,0.00,,,0.00,Weather View 32 v70,2013-05-19 00:42:00,
2013-05-18 20:47:00,71.0,69.8,29.99,ESE,112,0.0,2.0,96,0.00,,,0.00,Weather View 32 v70,2013-05-19 00:47:00,
2013-05-18 20:52:00,71.0,70.1,29.99,ESE,112,0.0,0.0,97,0.00,,,0.00,Weather View 32 v70,2013-05-19 00:52:00,
2013-05-18 20:57:00,71.0,70.1,29.99,ESE,112,0.0,0.0,97,0.00,,,0.00,Weather View 32 v70,2013-05-19 00:57:00,
2013-05-18 21:02:00,71.0,70.1,29.99,ESE,112,0.0,0.0,97,0.00,,,0.00,Weather View 32 v70,2013-05-19 01:02:00,
2013-05-18 21:07:00,71.0,70.1,29.99,ESE,112,0.0,0.0,97,0.00,,,0.00,Weather View 32 v70,2013-05-19 01:07:00,
2013-05-18 21:12:00,71.0,70.7,29.99,ESE,112,0.0,0.0,99,0.00,,,0.00,Weather View 32 v70,2013-05-19 01:12:00,
2013-05-18 21:17:00,70.0,69.7,29.99,ESE,112,0.0,0.0,99,0.00,,,0.00,Weather View 32 v70,2013-05-19 01:17:00,
2013-05-18 21:22:00,70.0,70.0,30.00,ESE,112,0.0,0.0,100,0.00,,,0.00,Weather View 32 v70,2013-05-19 01:22:00,
2013-05-18 21:27:00,70.0,70.0,29.99,ESE,112,0.0,0.0,100,0.00,,,0.00,Weather View 32 v70,2013-05-19 01:27:00,
2013-05-18 21:32:00,70.0,70.0,29.99,ESE,112,0.0,0.0,100,0.00,,,0.00,Weather View 32 v70,2013-05-19 01:32:00,
2013-05-18 21:37:00,70.0,70.0,29.99,ESE,112,0.0,0.0,100,0.00,,,0.00,Weather View 32 v70,2013-05-19 01:37:00,
2013-05-18 21:42:00,70.0,70.0,30.01,ESE,112,0.0,0.0,100,0.00,,,0.00,Weather View 32 v70,2013-05-19 01:42:00,
2013-05-18 21:47:00,70.0,70.0,30.01,ESE,112,0.0,0.0,100,0.00,,,0.00,Weather View 32 v70,2013-05-19 01:47:00,
2013-05-18 21:52:00,70.0,70.0,29.99,ESE,112,0.0,0.0,100,0.00,,,0.00,Weather View 32 v70,2013-05-19 01:52:00,
2013-05-18 21:57:00,70.0,70.0,29.99,ESE,112,0.0,0.0,100,0.00,,,0.00,Weather View 32 v70,2013-05-19 01:57:00,
2013-05-18 22:02:00,70.0,70.0,29.99,ESE,112,0.0,0.0,100,0.00,,,0.00,Weather View 32 v70,2013-05-19 02:02:00,
2013-05-18 22:07:00,70.0,70.0,29.99,ESE,112,0.0,0.0,100,0.00,,,0.00,Weather View 32 v70,2013-05-19 02:07:00,
2013-05-18 22:12:00,70.0,70.0,29.99,ESE,112,0.0,0.0,100,0.00,,,0.00,Weather View 32 v70,2013-05-19 02:12:00,
2013-05-18 22:17:00,70.0,70.0,29.99,ESE,112,0.0,0.0,100,0.00,,,0.00,Weather View 32 v70,2013-05-19 02:17:00,
2013-05-18 22:22:00,70.0,70.0,29.99,ESE,112,0.0,0.0,100,0.00,,,0.00,Weather View 32 v70,2013-05-19 02:22:00,
2013-05-18 22:27:00,70.0,70.0,29.99,ESE,112,0.0,0.0,100,0.00,,,0.00,Weather View 32 v70,2013-05-19 02:27:00,
2013-05-18 22:32:00,70.0,70.0,29.99,ESE,112,0.0,0.0,100,0.00,,,0.00,Weather View 32 v70,2013-05-19 02:32:00,
2013-05-18 22:37:00,69.0,69.0,29.99,ESE,112,0.0,2.0,100,0.00,,,0.00,Weather View 32 v70,2013-05-19 02:37:00,
2013-05-18 22:42:00,69.0,69.0,29.99,ESE,112,0.0,2.0,100,0.00,,,0.00,Weather View 32 v70,2013-05-19 02:42:00,
2013-05-18 22:47:00,69.0,69.0,29.99,ESE,112,0.0,2.0,100,0.00,,,0.00,Weather View 32 v70,2013-05-19 02:47:00,
2013-05-18 22:52:00,69.0,69.0,29.99,ESE,112,0.0,2.0,100,0.00,,,0.00,Weather View 32 v70,2013-05-19 02:52:00,
2013-05-18 22:57:00,68.0,68.0,30.01,ESE,112,0.0,2.0,100,0.00,,,0.00,Weather View 32 v70,2013-05-19 02:57:00,
2013-05-18 23:02:00,68.0,68.0,29.99,ESE,112,0.0,2.0,100,0.00,,,0.00,Weather View 32 v70,2013-05-19 03:02:00,
2013-05-18 23:07:00,68.0,68.0,29.99,ESE,112,0.0,2.0,100,0.00,,,0.00,Weather View 32 v70,2013-05-19 03:07:00,
2013-05-18 23:12:00,68.0,68.0,29.99,ESE,112,0.0,2.0,100,0.00,,,0.00,Weather View 32 v70,2013-05-19 03:12:00,
2013-05-18 23:17:00,67.0,67.0,29.99,ESE,112,0.0,2.0,100,0.00,,,0.00,Weather View 32 v70,2013-05-19 03:17:00,
2013-05-18 23:22:00,67.0,67.0,29.99,ESE,112,0.0,2.0,100,0.00,,,0.00,Weather View 32 v70,2013-05-19 03:22:00,
2013-05-18 23:27:00,67.0,67.0,29.99,ESE,112,0.0,2.0,100,0.00,,,0.00,Weather View 32 v70,2013-05-19 03:27:00,
2013-05-18 23:32:00,67.0,67.0,29.99,ESE,112,0.0,2.0,100,0.00,,,0.00,Weather View 32 v70,2013-05-19 03:32:00,
2013-05-18 23:37:00,67.0,67.0,29.98,ESE,112,0.0,0.0,100,0.00,,,0.00,Weather View 32 v70,2013-05-19 03:37:00,
2013-05-18 23:42:00,67.0,67.0,29.98,ESE,112,0.0,0.0,100,0.00,,,0.00,Weather View 32 v70,2013-05-19 03:42:00,
2013-05-18 23:47:00,66.0,66.0,29.98,ESE,112,0.0,0.0,100,0.00,,,0.00,Weather View 32 v70,2013-05-19 03:47:00,
2013-05-18 23:52:00,66.0,66.0,29.98,ESE,112,0.0,0.0,100,0.00,,,0.00,Weather View 32 v70,2013-05-19 03:52:00,
2013-05-18 23:57:00,66.0,66.0,29.98,ESE,112,0.0,0.0,100,0.00,,,0.00,Weather View 32 v70,2013-05-19 03:57:00,